Weather History for Monterey, CA

Change the Weather History Date:

Thursday, September 12, 2013

  Actual Average Record
Temperature  
Mean Temperature 63 °F 62 °F  
Max Temperature 68 °F 70 °F 82 °F (2003)
Min Temperature 58 °F 54 °F 47 °F (2000)
Degree Days  
Heating Degree Days 2    
Month to date heating degree days 7  
Since 1 July heating degree days 193  
Cooling Degree Days 0    
Month to date cooling degree days 8  
Year to date cooling degree days 34  
Growing Degree Days 13 (Base 50)    
Moisture  
Dew Point 57 °F    
Average Humidity 85    
Maximum Humidity 97    
Minimum Humidity 73    
Precipitation  
Precipitation 0.00 in - 0.00 in (2014)
Month to date precipitation 0.00  
Year to date precipitation 3.25  
Since 1 July precipitation 0.10  
Sea Level Pressure  
Sea Level Pressure 29.99 in    
Wind  
Wind Speed 5 mph (West)    
Max Wind Speed 14 mph    
Max Gust Speed 21 mph    
Visibility 10 miles    
Events      
T = Trace of Precipitation, MM = Missing Value Source: NWS Daily Summary

Daily Weather History Graph

Daily Weather History Graph

Search for Another Location

Airport:

Trip Planner

Search our weather history database for the weather conditions in past years. The results will help you decide how hot, cold, wet, or windy it might be!

Date:

Astronomy

Sep. 12, 2013 Rise Set
Actual Time 6:47 AM PDT 7:18 PM PDT
Civil Twilight 6:21 AM PDT 7:44 PM PDT
Nautical Twilight 5:51 AM PDT 8:15 PM PDT
Astronomical Twilight 5:19 AM PDT 8:46 PM PDT
Moon 2:09 PM PDT (9/12) No Moon Set
Length of Visible Light 13h 23m
Length of Day
12h 31m
Waxing Crescent, 51% of the Moon is Illuminated
Sep 12
Waxing Crescent
Sep 19
Full
Sep 26
Last Quarter
Oct 4
New
Oct 11
First Quarter

Hourly Weather History & Observations

Time (PDT) Temp. Dew Point Humidity Pressure Visibility Wind Dir Wind Speed Gust Speed Precip Events Conditions
12:54 AM 63.0 °F 57.0 °F 81% 30.02 in 10.0 mi Calm Calm - N/A   Overcast
1:15 AM 62.6 °F 57.2 °F 82% 29.98 in 10.0 mi Calm Calm - N/A   Overcast
1:54 AM 63.0 °F 57.0 °F 81% 30.01 in 10.0 mi Calm Calm - N/A   Overcast
2:54 AM 63.0 °F 57.0 °F 81% 30.01 in 10.0 mi Calm Calm - N/A   Overcast
3:54 AM 63.0 °F 57.0 °F 81% 30.00 in 10.0 mi Calm Calm - N/A   Overcast
4:54 AM 63.0 °F 57.0 °F 81% 30.00 in 10.0 mi Calm Calm - N/A   Overcast
5:54 AM 62.1 °F 57.0 °F 84% 30.01 in 10.0 mi WNW 3.5 mph - N/A   Overcast
6:54 AM 61.0 °F 57.0 °F 87% 30.01 in 10.0 mi Calm Calm - N/A   Overcast
7:54 AM 62.1 °F 55.9 °F 80% 30.02 in 10.0 mi Calm Calm - N/A   Overcast
8:54 AM 63.0 °F 55.9 °F 78% 30.02 in 10.0 mi East 4.6 mph - N/A   Overcast
9:54 AM 63.0 °F 57.0 °F 81% 30.03 in 10.0 mi WNW 6.9 mph - N/A   Overcast
10:51 AM 66.2 °F 57.2 °F 73% 29.99 in 10.0 mi WNW 6.9 mph - N/A   Mostly Cloudy
10:54 AM 66.0 °F 57.0 °F 73% 30.02 in 10.0 mi Variable 4.6 mph - N/A   Mostly Cloudy
11:07 AM 66.2 °F 57.2 °F 73% 29.99 in 10.0 mi NW 6.9 mph - N/A   Scattered Clouds
11:54 AM 66.0 °F 57.0 °F 73% 30.01 in 10.0 mi WNW 8.1 mph - N/A   Clear
12:54 PM 66.9 °F 57.0 °F 70% 30.00 in 10.0 mi WNW 10.4 mph - N/A   Clear
1:47 PM 66.2 °F 57.2 °F 73% 29.96 in 10.0 mi WNW 9.2 mph - N/A   Partly Cloudy
1:54 PM 66.9 °F 57.9 °F 73% 29.99 in 10.0 mi West 10.4 mph - N/A   Partly Cloudy
2:54 PM 66.9 °F 57.9 °F 73% 29.98 in 10.0 mi WNW 9.2 mph - N/A   Partly Cloudy
3:54 PM 66.0 °F 57.9 °F 75% 29.98 in 10.0 mi West 10.4 mph - N/A   Mostly Cloudy
4:54 PM 64.0 °F 57.9 °F 80% 29.98 in 10.0 mi West 11.5 mph - N/A   Overcast
5:21 PM 62.6 °F 57.2 °F 82% 29.94 in 10.0 mi WSW 9.2 mph - N/A   Overcast
5:54 PM 63.0 °F 57.0 °F 81% 29.97 in 10.0 mi West 6.9 mph - N/A   Overcast
6:54 PM 62.1 °F 57.0 °F 84% 29.98 in 10.0 mi WSW 9.2 mph - N/A   Overcast
7:38 PM 60.8 °F 57.2 °F 88% 29.94 in 9.0 mi SW 6.9 mph - N/A   Overcast
7:54 PM 61.0 °F 57.9 °F 90% 29.97 in 8.0 mi SW 5.8 mph - N/A   Overcast
8:54 PM 61.0 °F 59.0 °F 93% 29.98 in 5.0 mi WSW 6.9 mph - N/A   Overcast
9:54 PM 60.1 °F 57.9 °F 93% 29.98 in 9.0 mi South 5.8 mph - N/A   Overcast
10:54 PM 60.1 °F 57.9 °F 93% 29.97 in 10.0 mi SSE 5.8 mph - N/A   Overcast
11:20 PM 60.8 °F 57.2 °F 88% 29.93 in 10.0 mi South 3.5 mph - N/A   Scattered Clouds
11:54 PM 60.1 °F 57.0 °F 90% 29.96 in 10.0 mi West 3.5 mph - N/A   Clear